Date_and_time,latitude,longitude,wind_speed,RelWindDirFrom,WindDirFrom,air_pressure,air_temperature,relative_humidity,Temp,platform_speed_wrt_ground,air_pressure_at_mean_sea_level,platform_orientation
2019-12-01 23:50,50.6304516666667,-96.9807716666667,6.3,9.0,192,992.57,-7.4,96,1.02,0.0,1021.34,270.0
2019-12-02 00:00,50.63045,-96.9807666666667,6.1,8.6,202,992.44,-7.4,98,1.01,0.0,1021.20,360.0
2019-12-02 00:10,50.6304483333333,-96.9807633333333,6.5,8.8,199,992.35,-7.3,98,1.01,0.0,1021.10,360.0
2019-12-02 00:20,50.630445,-96.9807666666667,7.2,9.2,215,992.37,-7.3,98,1.01,0.0,1021.12,360.0
2019-12-02 00:30,50.6304516666667,-96.980765,7.6,10.8,213,992.40,-7.4,98,1.01,0.0,1021.17,360.0
2019-12-02 00:40,50.63046,-96.9807633333333,7.5,10.5,219,992.34,-7.3,99,1.01,0.0,1021.10,360.0
2019-12-02 00:50,50.6304533333333,-96.98077,7.2,10.0,215,992.22,-7.3,99,1.01,0.0,1020.97,360.0
2019-12-02 01:00,50.6304516666667,-96.98077,7.4,11.0,229,992.23,-7.3,99,1.01,0.0,1020.98,360.0
2019-12-02 01:10,50.6304516666667,-96.980765,6.3,10.0,237,992.21,-7.6,99,1.02,0.0,1020.98,360.0
2019-12-02 01:20,50.6304583333333,-96.98076,7.2,9.5,211,992.04,-7.6,99,1.02,0.0,1020.82,360.0
2019-12-02 01:30,50.6304616666667,-96.9807633333333,7.3,9.3,218,992.01,-7.7,99,1.03,0.0,1020.79,360.0
2019-12-02 01:40,50.63046,-96.9807666666667,8.0,10.7,225,992.05,-8.0,99,1.05,0.0,1020.86,360.0
2019-12-02 01:50,50.6304583333333,-96.980785,7.5,9.8,212,991.93,-8.3,99,1.07,0.0,1020.75,360.0
2019-12-02 02:00,50.6304316666667,-96.98078,7.3,9.6,213,991.77,-8.5,99,1.06,0.0,1020.59,161.1
2019-12-02 02:10,50.63045,-96.9807716666667,6.5,9.4,216,991.67,-8.5,99,1.06,0.0,1020.49,161.1
2019-12-02 02:20,50.6304516666667,-96.9807716666667,5.8,8.0,199,991.54,-8.4,99,1.05,0.0,1020.35,161.1
2019-12-02 02:30,50.6304483333333,-96.9807683333333,6.5,9.0,208,991.46,-8.4,99,1.05,0.0,1020.26,161.1
2019-12-02 02:40,50.63045,-96.9807683333333,6.4,8.9,203,991.37,-8.4,99,1.05,0.0,1020.16,161.1
2019-12-02 02:50,50.63046,-96.980755,6.8,8.8,212,991.33,-8.5,99,1.04,0.0,1020.14,161.1
2019-12-02 03:00,50.6304566666667,-96.980775,6.7,9.2,200,991.21,-8.7,99,1.03,0.0,1020.04,270.0
2019-12-02 03:10,50.63046,-96.98075,5.6,7.0,204,991.05,-8.8,99,1.03,0.0,1019.89,270.0
2019-12-02 03:20,50.6304566666667,-96.9807566666667,8.6,11.8,196,990.97,-8.8,99,1.04,0.0,1019.80,270.0
2019-12-02 03:30,50.6304516666667,-96.9807633333333,9.7,11.8,193,990.84,-8.8,99,1.03,0.0,1019.68,270.0
2019-12-02 03:40,50.63045,-96.9807583333333,8.6,11.8,196,990.80,-8.7,99,1.02,0.0,1019.66,270.0
2019-12-02 03:50,50.6304483333333,-96.980755,8.1,11.2,197,990.65,-8.5,99,1.02,0.0,1019.50,270.0
2019-12-02 04:00,50.6304433333333,-96.9807883333333,7.3,11.9,191,990.56,-8.3,99,1.02,0.0,1019.39,234.7
2019-12-02 04:10,50.6304466666667,-96.9807883333333,8.7,12.2,192,990.43,-8.5,99,1.01,0.0,1019.27,234.7
2019-12-02 04:20,50.6304516666667,-96.980785,8.5,12.0,191,990.33,-8.5,99,1.00,0.0,1019.17,234.7
2019-12-02 04:30,50.6304416666667,-96.9807466666667,10.6,13.3,190,990.29,-8.4,99,1.00,0.0,1019.12,234.7
2019-12-02 04:40,50.6304466666667,-96.98075,9.6,13.3,191,990.20,-8.5,99,1.00,0.0,1019.04,234.7
2019-12-02 04:50,50.6304666666667,-96.9808066666667,10.2,12.9,189,990.16,-8.5,99,1.00,0.0,1019.01,234.7
2019-12-02 05:00,50.6304466666667,-96.98076,10.6,12.8,189,990.06,-8.5,99,1.00,0.0,1018.91,48.4
2019-12-02 05:10,50.6304433333333,-96.9807566666667,10.1,13.8,189,990.05,-8.7,99,1.00,0.0,1018.91,48.4
2019-12-02 05:20,50.63044,-96.9807566666667,11.4,14.0,185,989.91,-8.7,99,0.99,0.0,1018.77,48.4
2019-12-02 05:30,50.63044,-96.9807683333333,9.7,13.3,188,989.92,-8.7,99,0.98,0.0,1018.78,48.4
2019-12-02 05:40,50.6304416666667,-96.9807683333333,9.2,12.1,197,989.87,-8.7,99,0.98,0.0,1018.71,48.4
2019-12-02 05:50,50.6304466666667,-96.9807633333333,8.1,11.2,195,989.73,-8.6,99,0.98,0.0,1018.55,48.4
2019-12-02 06:00,50.63045,-96.9807633333333,9.2,12.2,190,989.61,-8.7,99,0.98,0.0,1018.44,90.0
2019-12-02 06:10,50.63045,-96.980765,8.7,11.6,201,989.68,-8.9,99,0.98,0.0,1018.52,90.0
2019-12-02 06:20,50.63045,-96.980765,11.5,15.0,185,989.48,-8.9,99,0.97,0.0,1018.32,90.0
2019-12-02 06:30,50.63045,-96.980765,11.0,15.0,188,989.41,-9.1,99,0.97,0.0,1018.26,90.0
2019-12-02 06:40,50.63045,-96.980765,9.1,11.8,192,989.42,-9.0,99,0.96,0.0,1018.27,90.0
2019-12-02 06:50,50.63045,-96.980765,9.3,12.5,192,989.43,-8.9,99,0.96,0.0,1018.26,90.0
2019-12-02 07:00,50.63045,-96.980765,10.6,13.7,193,989.24,-9.0,99,0.96,0.0,1018.09,54.7
2019-12-02 07:10,50.6304483333333,-96.9807616666667,9.3,13.2,190,989.14,-9.1,99,0.96,0.0,1018.00,54.7
2019-12-02 07:20,50.6304516666667,-96.9807616666667,10.2,14.0,194,989.11,-9.1,99,0.96,0.0,1017.96,54.7
2019-12-02 07:30,50.63045,-96.9807583333333,10.7,13.7,196,988.98,-9.1,99,0.96,0.0,1017.82,54.7
2019-12-02 07:40,50.630455,-96.98079,9.4,13.2,198,988.95,-9.2,99,0.96,0.0,1017.80,54.7
2019-12-02 07:50,50.63045,-96.98078,11.5,15.4,197,988.73,-9.2,99,0.94,0.0,1017.58,54.7
2019-12-02 08:00,50.6304516666667,-96.9807733333333,11.1,15.0,197,988.72,-9.3,99,0.94,0.0,1017.58,305.3
2019-12-02 08:10,50.6304516666667,-96.9807683333333,9.3,12.2,195,988.54,-9.2,99,0.94,0.0,1017.39,305.3
2019-12-02 08:20,50.63045,-96.9807666666667,9.5,13.7,197,988.42,-9.1,99,0.95,0.0,1017.27,305.3
2019-12-02 08:30,50.6304516666667,-96.9807666666667,10.9,14.3,197,988.17,-9.1,99,0.96,0.0,1017.01,305.3
2019-12-02 08:40,50.63045,-96.9807683333333,10.6,13.9,189,987.87,-9.0,99,0.96,0.0,1016.69,305.3
2019-12-02 08:50,50.6304583333333,-96.98075,11.1,13.7,183,987.51,-8.9,99,0.97,0.0,1016.31,305.3
2019-12-02 09:00,50.630445,-96.9807583333333,10.4,13.8,185,987.29,-8.9,99,0.97,0.0,1016.10,360.0
2019-12-02 09:10,50.630445,-96.9807633333333,9.4,11.6,184,987.10,-8.9,99,0.98,0.0,1015.90,360.0
2019-12-02 09:20,50.630445,-96.9807633333333,9.2,10.8,180,986.97,-9.0,99,0.98,0.0,1015.78,360.0
2019-12-02 09:30,50.6304466666667,-96.9807633333333,8.1,10.4,184,986.97,-9.0,99,0.99,0.0,1015.78,360.0
2019-12-02 09:40,50.63048,-96.9808,8.1,10.0,181,986.86,-9.0,99,0.99,0.0,1015.67,360.0
2019-12-02 09:50,50.630465,-96.9807833333333,8.3,11.2,183,986.67,-9.1,99,0.98,0.0,1015.48,360.0
2019-12-02 10:00,50.63046,-96.98078,9.1,11.8,182,986.39,-9.1,99,0.98,0.0,1015.18,291.5
2019-12-02 10:10,50.6304566666667,-96.9807766666667,8.0,10.0,181,986.28,-9.1,99,0.98,0.0,1015.08,291.5
2019-12-02 10:20,50.6304566666667,-96.980775,8.8,11.0,183,986.13,-9.2,99,0.98,0.0,1014.92,291.5
2019-12-02 10:30,50.6304566666667,-96.980775,8.4,10.9,186,986.03,-9.2,99,0.99,0.0,1014.81,291.5
2019-12-02 10:40,50.6304483333333,-96.98077,8.6,11.0,186,985.87,-9.3,99,0.99,0.0,1014.65,291.5
2019-12-02 10:50,50.6304483333333,-96.980775,9.0,11.3,187,985.66,-9.4,99,0.96,0.0,1014.44,291.5
2019-12-02 11:00,50.6304583333333,-96.9808016666667,9.4,13.4,186,985.38,-9.5,98,0.95,0.0,1014.16,283.7
2019-12-02 11:10,50.6304416666667,-96.9807566666667,9.1,11.8,186,985.16,-9.5,98,0.94,0.0,1013.94,283.7
2019-12-02 11:20,50.63044,-96.980765,8.9,11.4,187,984.97,-9.5,98,0.94,0.0,1013.74,283.7
2019-12-02 11:30,50.6304433333333,-96.9807616666667,9.3,12.1,187,984.81,-9.6,98,0.93,0.0,1013.58,283.7
2019-12-02 11:40,50.630445,-96.98076,9.7,12.2,187,984.68,-9.6,98,0.93,0.0,1013.45,283.7
2019-12-02 11:50,50.6304416666667,-96.9807616666667,10.0,14.9,189,984.61,-9.7,97,0.93,0.0,1013.38,283.7
2019-12-02 12:00,50.6304383333333,-96.9808116666667,10.8,14.0,188,984.45,-9.7,97,0.94,0.0,1013.23,270.0
2019-12-02 12:10,50.630445,-96.9807733333333,11.9,14.7,187,984.27,-9.8,97,0.94,0.0,1013.05,270.0
2019-12-02 12:20,50.6304333333333,-96.980775,11.5,15.2,187,984.19,-9.9,97,0.94,0.0,1012.97,270.0
2019-12-02 12:30,50.6304433333333,-96.9807883333333,12.4,16.6,185,983.94,-9.9,96,0.94,0.0,1012.72,270.0
2019-12-02 12:40,50.6304466666667,-96.9807683333333,12.6,16.3,185,983.63,-10.0,96,0.94,0.0,1012.41,270.0
2019-12-02 12:50,50.6304433333333,-96.9807683333333,13.9,18.3,183,983.33,-10.0,96,0.94,0.0,1012.11,270.0
2019-12-02 13:00,50.63044,-96.9807666666667,13.9,17.9,185,983.08,-10.0,95,0.94,0.0,1011.85,138.8
2019-12-02 13:10,50.630445,-96.980765,15.1,19.5,186,982.94,-10.1,95,0.94,0.0,1011.71,138.8
2019-12-02 13:20,50.630445,-96.9807666666667,14.2,18.3,185,982.72,-10.1,94,0.95,0.0,1011.49,138.8
2019-12-02 13:30,50.630445,-96.98077,15.0,18.7,184,982.40,-9.9,93,0.94,0.0,1011.15,138.8
2019-12-02 13:40,50.630445,-96.98077,13.5,17.0,185,982.21,-9.9,92,0.93,0.0,1010.96,138.8
2019-12-02 13:50,50.6304283333333,-96.9807583333333,14.1,17.6,188,982.23,-9.8,92,0.93,0.0,1010.97,138.8
2019-12-02 14:00,50.630435,-96.9807866666667,15.0,19.2,188,982.13,-9.8,91,0.93,0.0,1010.87,165.5
2019-12-02 14:10,50.6304416666667,-96.980755,16.2,20.1,186,981.94,-9.7,89,0.93,0.0,1010.68,165.5
2019-12-02 14:20,50.6304483333333,-96.9807683333333,14.5,17.3,188,981.90,-9.6,88,0.93,0.0,1010.63,165.5
2019-12-02 14:30,50.6304483333333,-96.9807666666667,14.5,18.0,186,981.68,-9.5,87,0.93,0.0,1010.41,165.5
2019-12-02 14:40,50.6304433333333,-96.9807616666667,14.3,20.1,188,981.56,-9.5,86,0.93,0.0,1010.29,165.5
2019-12-02 14:50,50.6304416666667,-96.980765,14.2,18.8,193,981.72,-9.4,86,0.94,0.0,1010.45,165.5
2019-12-02 15:00,50.63044,-96.9807633333333,16.0,21.5,192,981.72,-9.3,85,0.94,0.0,1010.43,90.0
2019-12-02 15:10,50.6304483333333,-96.9808216666667,16.0,20.7,187,981.48,-9.3,85,0.94,0.0,1010.19,90.0
2019-12-02 15:20,50.630445,-96.9807733333333,15.5,20.6,187,981.28,-9.2,84,0.93,0.0,1009.98,90.0
2019-12-02 15:30,50.630445,-96.980765,15.3,20.3,188,981.19,-9.1,84,0.93,0.0,1009.87,90.0
2019-12-02 15:40,50.6304333333333,-96.9807566666667,15.1,20.6,191,981.21,-8.9,84,0.93,0.0,1009.88,90.0
2019-12-02 15:50,50.6304333333333,-96.9807583333333,15.6,20.1,188,981.03,-8.8,84,0.93,0.0,1009.68,90.0
2019-12-02 16:00,50.630435,-96.9807616666667,16.0,22.2,186,980.89,-8.8,85,0.93,0.0,1009.54,167.4
2019-12-02 16:10,50.630435,-96.9807616666667,15.2,18.5,186,980.80,-8.8,86,0.93,0.0,1009.44,167.4
2019-12-02 16:20,50.630435,-96.9807633333333,16.5,21.8,185,980.89,-8.7,85,0.93,0.0,1009.53,167.4
2019-12-02 16:30,50.6304366666667,-96.9807633333333,14.7,22.0,187,980.85,-8.7,86,0.91,0.0,1009.48,167.4
2019-12-02 16:40,50.6304366666667,-96.9807633333333,15.6,20.8,185,980.60,-8.5,85,0.90,0.0,1009.21,167.4
2019-12-02 16:50,50.6304383333333,-96.9807633333333,14.4,17.8,185,980.35,-8.2,85,0.90,0.0,1008.93,167.4
2019-12-02 17:00,50.6304383333333,-96.9807633333333,13.4,19.6,185,980.06,-7.9,85,0.91,0.0,1008.62,72.3
2019-12-02 17:10,50.6304383333333,-96.980765,16.0,20.1,184,979.67,-7.7,84,0.91,0.0,1008.20,72.3
2019-12-02 17:20,50.6304383333333,-96.9807666666667,15.4,18.8,185,979.60,-7.6,84,0.91,0.0,1008.11,72.3
2019-12-02 17:30,50.6304383333333,-96.9807666666667,15.4,20.6,185,979.46,-7.3,85,0.91,0.0,1007.95,72.3
2019-12-02 17:40,50.6304433333333,-96.9807966666667,15.9,20.4,185,979.25,-7.0,84,0.92,0.0,1007.70,72.3
2019-12-02 17:50,50.6304316666667,-96.9807683333333,15.7,20.6,192,979.10,-6.7,83,0.91,0.0,1007.54,72.3
2019-12-02 18:00,50.6304416666667,-96.9807633333333,14.4,20.6,193,978.98,-6.7,82,0.91,0.0,1007.41,90.0
2019-12-02 18:10,50.6304433333333,-96.9807683333333,14.7,20.8,193,978.84,-6.6,82,0.91,0.0,1007.26,90.0
2019-12-02 18:20,50.630445,-96.9807633333333,15.6,20.5,192,978.66,-6.6,82,0.92,0.0,1007.07,90.0
2019-12-02 18:30,50.6304433333333,-96.9807566666667,14.1,18.3,191,978.50,-6.3,81,0.92,0.0,1006.88,90.0
2019-12-02 18:40,50.6304483333333,-96.9807733333333,14.8,21.0,192,978.19,-6.0,81,0.92,0.0,1006.52,90.0
2019-12-02 18:50,50.6304533333333,-96.9807666666667,12.7,18.0,188,978.01,-5.8,81,0.92,0.0,1006.31,90.0
2019-12-02 19:00,50.6304216666667,-96.9807816666667,14.2,18.4,189,977.74,-5.6,81,0.92,0.0,1006.02,228.4
2019-12-02 19:10,50.63045,-96.98077,12.6,17.9,194,977.84,-5.4,81,0.92,0.0,1006.11,228.4
2019-12-02 19:20,50.6304433333333,-96.9807716666667,10.7,16.6,193,977.78,-5.2,81,0.92,0.0,1006.02,228.4
2019-12-02 19:30,50.63044,-96.9807733333333,13.3,19.2,191,977.54,-5.2,79,0.92,0.0,1005.76,228.4
2019-12-02 19:40,50.63044,-96.9807733333333,13.8,17.7,192,977.40,-5.3,79,0.92,0.0,1005.60,228.4
2019-12-02 19:50,50.63044,-96.98077,15.2,20.5,190,977.18,-5.3,79,0.93,0.0,1005.37,228.4
2019-12-02 20:00,50.63044,-96.98077,16.2,21.1,191,977.04,-5.4,79,0.93,0.0,1005.23,0.0
2019-12-02 20:10,50.6304416666667,-96.98077,15.6,20.3,192,977.04,-5.7,80,0.93,0.0,1005.24,0.0
2019-12-02 20:20,50.6304433333333,-96.98077,15.4,19.8,192,976.97,-5.9,81,0.93,0.0,1005.16,0.0
2019-12-02 20:30,50.6304433333333,-96.98077,15.1,19.9,193,976.76,-5.8,81,0.94,0.0,1004.92,0.0
2019-12-02 20:40,50.6304433333333,-96.9807716666667,15.7,21.6,192,976.62,-5.4,80,0.93,0.0,1004.74,0.0
2019-12-02 20:50,50.6304433333333,-96.9807716666667,17.9,21.8,192,976.60,-5.1,80,0.94,0.0,1004.70,0.0
2019-12-02 21:00,50.6304333333333,-96.9807733333333,14.8,20.8,195,976.62,-4.9,80,0.94,0.0,1004.70,221.3
2019-12-02 21:10,50.6304483333333,-96.98076,14.8,20.1,193,976.44,-4.7,80,0.94,0.0,1004.50,221.3
2019-12-02 21:20,50.630445,-96.980765,13.3,18.4,198,976.43,-4.3,78,0.94,0.0,1004.47,221.3
2019-12-02 21:30,50.6304433333333,-96.980765,14.6,19.6,192,976.15,-4.3,79,0.94,0.0,1004.18,221.3
2019-12-02 21:40,50.6304466666667,-96.9807666666667,15.4,20.4,193,975.99,-4.4,80,0.94,0.0,1004.02,221.3
2019-12-02 21:50,50.6304466666667,-96.9807666666667,14.7,19.5,196,976.09,-4.4,80,0.94,0.0,1004.13,221.3
2019-12-02 22:00,50.6304483333333,-96.9807666666667,13.7,19.3,193,976.01,-4.3,80,0.94,0.0,1004.06,27.2
2019-12-02 22:10,50.6304483333333,-96.9807683333333,12.1,15.3,193,975.99,-4.4,80,0.94,0.0,1004.05,27.2
2019-12-02 22:20,50.6304483333333,-96.9807683333333,13.1,17.4,191,975.78,-4.5,81,0.94,0.0,1003.84,27.2
2019-12-02 22:30,50.6304483333333,-96.98077,14.0,17.4,190,975.55,-4.7,82,0.95,0.0,1003.59,27.2
2019-12-02 22:40,50.6304483333333,-96.9807716666667,13.9,17.8,191,975.56,-4.8,83,0.95,0.0,1003.60,27.2
2019-12-02 22:50,50.6304483333333,-96.9807716666667,12.9,17.0,189,975.43,-5.0,85,0.96,0.0,1003.46,27.2
2019-12-02 23:00,50.6304483333333,-96.9807733333333,12.1,16.8,191,975.34,-5.0,85,0.96,0.0,1003.35,311.7
2019-12-02 23:10,50.6304483333333,-96.9807716666667,12.7,15.9,187,975.06,-4.9,86,0.96,0.0,1003.04,311.7
2019-12-02 23:20,50.6304483333333,-96.9807733333333,12.6,15.6,186,974.88,-4.8,86,0.96,0.0,1002.85,311.7
2019-12-02 23:30,50.6304483333333,-96.9807733333333,11.7,16.3,187,974.82,-4.8,87,0.97,0.0,1002.80,311.7
